History for KNYNEWYO639

Roof of a 1 story trailer, New York, NY — Current Conditions
Daily Summary for April 26, 2018
  Current: High: Low: Average:
Temperature: 55.9°F 55.9°F 52.8°F 54.2°F
Dew Point: 56.0°F 56.0°F 53.0°F 53.8°F
Humidity: 99% 99% 98% 99%
Wind Speed: 1.4mph 6.3mph - 1.4mph
Wind Gust: 2.0mph 6.3mph - -
Wind: NW - - ESE
Pressure: 29.67in 29.72in 29.67in -
Precipitation: 0.00in      
Statistics for the rest of the month
    High: Low: Average:
Temperature:   82.5°F 31.3°F 48.5°F
Dew Point:   60.0°F 16.0°F 34.4°F
Humidity:   99.0% 19.0% 62.4%
Wind Speed:   39.2mph from the South - 7.7mph
Wind Gust:   41.0mph from the SW - -
Wind:   - - SSE
Pressure:   30.57in 29.48in -
Precipitation:   0.00in    
KNYNEWYO639 Weather Graph
Tabular Data for April 26, 2018
Time Temp. Dew Point Pressure Wind Gust Humidity Rainfall
00:01 53.6°F 53.0°F 29.71in 3.3mph 98% 0.00in
00:06 53.5°F 53.0°F 29.71in 4.2mph 98% 0.00in
00:11 53.8°F 53.0°F 29.71in 5.8mph 98% 0.00in
00:16 54.1°F 53.0°F 29.71in 6.0mph 98% 0.00in
00:21 54.2°F 53.0°F 29.71in 6.0mph 98% 0.00in
00:26 54.6°F 54.0°F 29.71in 6.0mph 98% 0.00in
00:31 55.1°F 55.0°F 29.70in 5.0mph 99% 0.00in
00:36 55.4°F 55.0°F 29.70in 4.0mph 99% 0.00in
00:41 55.2°F 54.0°F 29.70in 4.0mph 98% 0.00in
00:46 54.8°F 54.0°F 29.70in 2.3mph 98% 0.00in
00:51 54.3°F 53.0°F 29.70in 2.0mph 98% 0.00in
00:56 53.9°F 53.0°F 29.70in 0.0mph 98% 0.00in
01:01 53.6°F 53.0°F 29.70in 1.0mph 98% 0.00in
01:06 53.6°F 53.0°F 29.70in 5.1mph 98% 0.00in
01:11 53.6°F 53.0°F 29.69in 5.0mph 98% 0.00in
01:16 54.1°F 53.0°F 29.69in 4.0mph 98% 0.00in
01:21 54.8°F 54.0°F 29.69in 2.0mph 99% 0.00in
01:26 55.0°F 54.0°F 29.69in 0.0mph 98% 0.00in
01:31 54.9°F 54.0°F 29.68in 0.0mph 98% 0.00in
01:36 54.9°F 54.0°F 29.68in 0.0mph 98% 0.00in
01:41 54.7°F 54.0°F 29.68in 3.0mph 98% 0.00in
01:46 54.3°F 53.0°F 29.68in 3.0mph 98% 0.00in
01:51 54.0°F 53.0°F 29.68in 0.0mph 98% 0.00in
01:56 54.2°F 53.0°F 29.67in 0.0mph 98% 0.00in
02:01 54.6°F 54.0°F 29.68in 4.0mph 99% 0.00in
02:06 54.4°F 54.0°F 29.67in 4.0mph 99% 0.00in
02:11 53.9°F 54.0°F 29.67in 5.0mph 99% 0.00in
02:16 53.4°F 53.0°F 29.67in 1.0mph 99% 0.00in
02:21 53.2°F 53.0°F 29.67in 2.1mph 99% 0.00in
02:26 53.1°F 53.0°F 29.67in 3.0mph 99% 0.00in
02:31 52.8°F 53.0°F 29.67in 2.0mph 99% 0.00in
02:36 52.8°F 53.0°F 29.67in 3.0mph 99% 0.00in
02:41 53.1°F 53.0°F 29.67in 4.0mph 99% 0.00in
02:46 53.8°F 53.0°F 29.67in 4.0mph 99% 0.00in
02:51 54.5°F 54.0°F 29.67in 1.0mph 99% 0.00in
02:56 54.8°F 54.0°F 29.67in 2.0mph 99% 0.00in
02:57 54.8°F 54.0°F 29.67in 2.0mph 99% 0.00in
03:02 55.1°F 55.0°F 29.67in 1.0mph 99% 0.00in
03:07 55.5°F 56.0°F 29.67in 0.0mph 99% 0.00in
03:12 55.7°F 56.0°F 29.68in 3.0mph 99% 0.00in
03:17 55.6°F 56.0°F 29.68in 2.0mph 99% 0.00in
03:22 55.5°F 56.0°F 29.68in 1.0mph 99% 0.00in
03:27 55.5°F 56.0°F 29.67in 0.0mph 99% 0.00in
Comma Delimited File
Powered by Weather Underground, Inc.